TimeEST,TemperatureF,Dew PointF,Humidity,Sea Level PressureIn,VisibilityMPH,Wind Direction,Wind SpeedMPH,Gust SpeedMPH,PrecipitationIn,Events,Conditions,WindDirDegrees,DateUTC
12:15 AM,43.3,42.4,97,29.81,2.5,Calm,Calm,-,N/A,,Overcast,0,2013-12-15 05:15:00
12:35 AM,43.3,42.4,97,29.80,2.5,Calm,Calm,-,N/A,,Overcast,0,2013-12-15 05:35:00
12:55 AM,43.2,42.3,97,29.80,2.0,Calm,Calm,-,N/A,,Overcast,0,2013-12-15 05:55:00
1:15 AM,42.8,41.9,97,29.80,2.0,Calm,Calm,-,N/A,,Overcast,0,2013-12-15 06:15:00
1:35 AM,42.8,41.9,97,29.80,2.0,Calm,Calm,-,N/A,,Overcast,0,2013-12-15 06:35:00
1:55 AM,43.2,42.3,97,29.80,10.0,North,11.5,16.1,N/A,,Overcast,350,2013-12-15 06:55:00
2:15 AM,43.5,41.2,91,29.81,10.0,North,8.1,-,N/A,,Overcast,350,2013-12-15 07:15:00
2:35 AM,43.2,39.2,86,29.81,10.0,North,11.5,16.1,0.01,,Overcast,350,2013-12-15 07:35:00
2:55 AM,42.8,38.5,85,29.82,10.0,North,11.5,-,0.01,,Drizzle,350,2013-12-15 07:55:00
3:15 AM,41.0,37.6,88,29.83,5.0,NNW,16.1,19.6,N/A,,Drizzle,340,2013-12-15 08:15:00
3:35 AM,39.9,36.5,88,29.83,7.0,NNW,11.5,21.9,N/A,,Drizzle,330,2013-12-15 08:35:00
3:55 AM,39.4,34.9,84,29.83,7.0,NNW,11.5,17.3,N/A,,Light Drizzle,330,2013-12-15 08:55:00
4:15 AM,39.6,34.2,81,29.85,10.0,NNE,6.9,-,0.01,,Overcast,30,2013-12-15 09:15:00
4:35 AM,39.4,34.0,81,29.86,10.0,North,5.8,-,0.01,,Overcast,350,2013-12-15 09:35:00
4:55 AM,38.3,34.2,85,29.87,10.0,NNE,9.2,18.4,0.01,,Light Drizzle,20,2013-12-15 09:55:00
5:15 AM,37.6,33.4,85,29.87,10.0,North,5.8,-,N/A,,Drizzle,350,2013-12-15 10:15:00
5:35 AM,36.5,32.2,84,29.88,10.0,NW,13.8,17.3,N/A,Rain,Light Rain,310,2013-12-15 10:35:00
5:55 AM,36.0,31.8,85,29.89,10.0,NW,12.7,18.4,0.01,,Overcast,310,2013-12-15 10:55:00
6:15 AM,36.1,30.0,78,29.89,10.0,NW,17.3,23.0,N/A,,Overcast,320,2013-12-15 11:15:00
6:35 AM,35.6,29.5,78,29.91,10.0,WNW,10.4,20.7,N/A,,Overcast,300,2013-12-15 11:35:00
6:55 AM,35.1,29.1,79,29.92,10.0,NW,6.9,18.4,N/A,,Overcast,320,2013-12-15 11:55:00
7:15 AM,34.9,28.6,78,29.93,10.0,NNW,8.1,-,N/A,,Overcast,330,2013-12-15 12:15:00
7:35 AM,34.3,28.8,80,29.94,10.0,WNW,11.5,17.3,N/A,,Overcast,300,2013-12-15 12:35:00
7:55 AM,34.2,28.4,79,29.95,7.0,WNW,9.2,17.3,N/A,,Overcast,290,2013-12-15 12:55:00
8:15 AM,34.2,28.0,78,29.96,10.0,WNW,10.4,16.1,N/A,,Overcast,300,2013-12-15 13:15:00
8:35 AM,34.3,27.9,77,29.97,10.0,North,5.8,19.6,N/A,,Overcast,350,2013-12-15 13:35:00
8:55 AM,34.7,28.6,78,29.98,10.0,NW,3.5,-,N/A,,Overcast,320,2013-12-15 13:55:00
9:15 AM,34.7,27.9,76,29.99,10.0,WNW,5.8,-,N/A,,Overcast,300,2013-12-15 14:15:00
9:35 AM,35.1,27.9,75,30.00,10.0,NW,10.4,-,N/A,,Overcast,310,2013-12-15 14:35:00
9:55 AM,35.6,27.7,73,30.00,10.0,WNW,11.5,16.1,0.01,,Overcast,300,2013-12-15 14:55:00
10:15 AM,35.6,27.3,72,30.01,10.0,NW,5.8,16.1,N/A,,Overcast,310,2013-12-15 15:15:00
10:35 AM,36.0,27.7,72,30.02,10.0,West,6.9,-,N/A,,Overcast,280,2013-12-15 15:35:00
10:55 AM,36.5,27.9,71,30.03,10.0,NW,6.9,-,N/A,,Overcast,320,2013-12-15 15:55:00
11:15 AM,36.5,27.9,71,30.03,10.0,NNW,6.9,-,N/A,,Overcast,340,2013-12-15 16:15:00
11:35 AM,36.5,27.7,70,30.03,10.0,NW,9.2,-,N/A,,Overcast,320,2013-12-15 16:35:00
11:55 AM,36.1,27.5,71,30.03,10.0,NNW,6.9,-,N/A,,Overcast,340,2013-12-15 16:55:00
12:15 PM,36.1,27.7,71,30.02,10.0,NW,5.8,-,N/A,,Overcast,310,2013-12-15 17:15:00
12:35 PM,36.0,27.3,71,30.02,10.0,NW,6.9,-,N/A,,Overcast,320,2013-12-15 17:35:00
12:55 PM,37.6,27.1,66,30.02,10.0,West,10.4,18.4,N/A,,Overcast,280,2013-12-15 17:55:00
1:15 PM,37.8,27.1,66,30.02,10.0,North,11.5,-,N/A,,Mostly Cloudy,360,2013-12-15 18:15:00
1:35 PM,37.9,26.6,64,30.01,10.0,North,12.7,18.4,N/A,,Scattered Clouds,350,2013-12-15 18:35:00
1:55 PM,37.8,26.8,65,30.01,10.0,North,13.8,18.4,N/A,,Clear,360,2013-12-15 18:55:00
2:15 PM,37.8,27.0,65,30.02,10.0,North,8.1,-,N/A,,Scattered Clouds,350,2013-12-15 19:15:00
2:35 PM,37.4,25.9,63,30.03,10.0,NW,10.4,16.1,N/A,,Clear,320,2013-12-15 19:35:00
2:55 PM,37.2,25.5,63,30.04,10.0,NNW,9.2,-,N/A,,Mostly Cloudy,340,2013-12-15 19:55:00
3:15 PM,36.7,25.5,64,30.04,10.0,NW,6.9,16.1,N/A,,Scattered Clouds,320,2013-12-15 20:15:00
3:35 PM,36.1,25.0,64,30.05,10.0,NW,12.7,18.4,N/A,,Clear,310,2013-12-15 20:35:00
3:55 PM,35.8,24.6,64,30.06,10.0,NNW,10.4,16.1,N/A,,Clear,330,2013-12-15 20:55:00
4:15 PM,35.6,24.6,64,30.06,10.0,NNW,4.6,-,N/A,,Clear,330,2013-12-15 21:15:00
4:35 PM,34.7,24.4,66,30.06,10.0,NNW,8.1,-,N/A,,Clear,340,2013-12-15 21:35:00
4:55 PM,34.0,23.9,67,30.07,10.0,NW,10.4,-,N/A,,Clear,320,2013-12-15 21:55:00
5:15 PM,33.3,23.9,69,30.08,10.0,NW,8.1,-,N/A,,Clear,320,2013-12-15 22:15:00
5:35 PM,32.9,23.9,69,30.08,10.0,NNW,6.9,-,N/A,,Clear,340,2013-12-15 22:35:00
5:55 PM,32.4,23.9,71,30.09,10.0,NW,6.9,-,N/A,,Clear,320,2013-12-15 22:55:00
6:15 PM,32.0,23.9,72,30.10,10.0,NW,9.2,-,N/A,,Clear,320,2013-12-15 23:15:00
6:35 PM,32.0,23.9,72,30.11,10.0,North,6.9,-,N/A,,Clear,350,2013-12-15 23:35:00
6:55 PM,31.8,23.9,73,30.12,10.0,Calm,Calm,-,0.01,,Clear,0,2013-12-15 23:55:00
7:15 PM,29.7,25.2,83,30.12,10.0,Calm,Calm,-,N/A,,Clear,0,2013-12-16 00:15:00
7:35 PM,29.3,24.8,83,30.13,10.0,Calm,Calm,-,N/A,,Clear,0,2013-12-16 00:35:00
7:55 PM,28.9,24.8,84,30.13,10.0,Calm,Calm,-,0.01,,Clear,0,2013-12-16 00:55:00
8:15 PM,28.4,24.8,86,30.13,10.0,Calm,Calm,-,N/A,,Clear,0,2013-12-16 01:15:00
8:35 PM,27.7,24.4,88,30.14,10.0,Calm,Calm,-,N/A,,Clear,0,2013-12-16 01:35:00
8:55 PM,28.4,24.3,84,30.14,10.0,WSW,3.5,-,0.01,,Clear,240,2013-12-16 01:55:00
9:15 PM,26.4,23.5,89,30.15,10.0,Calm,Calm,-,N/A,,Clear,0,2013-12-16 02:15:00
9:35 PM,27.3,23.9,87,30.15,10.0,Calm,Calm,-,N/A,,Clear,0,2013-12-16 02:35:00
9:55 PM,26.6,24.1,90,30.15,10.0,Calm,Calm,-,N/A,,Clear,0,2013-12-16 02:55:00
10:15 PM,26.4,24.1,91,30.15,10.0,Calm,Calm,-,0.01,,Clear,0,2013-12-16 03:15:00
10:35 PM,25.9,24.1,93,30.15,7.0,Calm,Calm,-,0.01,,Clear,0,2013-12-16 03:35:00
10:55 PM,25.2,23.2,92,30.16,7.0,Calm,Calm,-,0.01,,Clear,0,2013-12-16 03:55:00
11:15 PM,24.1,22.3,93,30.16,7.0,Calm,Calm,-,N/A,,Clear,0,2013-12-16 04:15:00
11:35 PM,24.1,22.3,93,30.16,7.0,Calm,Calm,-,N/A,,Clear,0,2013-12-16 04:35:00
11:55 PM,23.5,21.7,93,30.16,7.0,Calm,Calm,-,N/A,,Clear,0,2013-12-16 04:55:00